Regional Weather Roundup
Issued by NWS

Home | Current Version | Previous Version | Text Only | Print | Product List | Glossary Off
Versions: 1 2 3 4 5 6 7 8 9 10 11 12 13 14 15 16 17 18 19 20 21 22 23 24 25 26 27 28 29 30 31 32 33 34 35 36 37 38 39 40 41 42 43 44 45 46 47 48 49 50

000
ASUS43 KOAX 011310
RWRNE

WEATHER ROUNDUP FOR NEBRASKA
NATIONAL WEATHER SERVICE OMAHA NE
800 AM CDT SAT AUG 01 2015

NOTES: SATELLITE DATA IS BEING USED TO AUGMENT CLOUD COVER ABOVE
       12000 FEET.
       "FAIR" INDICATES FEW OR NO CLOUDS BELOW 12,000 FEET WITH NO
       SIGNIFICANT WEATHER AND/OR OBSTRUCTIONS TO VISIBILITY.

  * THESE STATIONS DO NOT REPORT WEATHER SUCH AS RAIN...SNOW OR FOG.

NEZ001>004-019>022-054>056-011400-
NEBRASKA PANHANDLE

CITY           SKY/WX    TMP DP  RH WIND       PRES   REMARKS
SCOTTSBLUFF    SUNNY     67  59  75 NE3       30.09S
ALLIANCE       SUNNY     63  57  81 CALM      30.09R
CHADRON        SUNNY     62  55  77 NE7       30.06R
KIMBALL        SUNNY     65  59  81 SW7       30.15S
SIDNEY         SUNNY     68  60  75 SW14      30.14S
$$

NEZ057>060-069>072-079>082-011400-
SOUTHWEST NEBRASKA

CITY           SKY/WX    TMP DP  RH WIND       PRES   REMARKS
NORTH PLATTE   SUNNY     72  57  59 NE7       30.10R
IMPERIAL       SUNNY     67  59  75 CALM      30.12R
LEXINGTON      SUNNY     66  62  85 E16       30.16R
MCCOOK         SUNNY     70  58  65 SW8       30.09R
OGALLALA       SUNNY     64  60  89 S6        30.11S
$$

NEZ005>010-023>029-035>040-094-011400-
NORTH CENTRAL NEBRASKA

CITY           SKY/WX    TMP DP  RH WIND       PRES   REMARKS
VALENTINE      LGT RAIN  69  57  65 S17G23    30.07F
AINSWORTH      PTSUNNY   65  57  73 E8        30.11R
BROKEN BOW     MOSUNNY   67  59  75 E18G26    30.14F
O`NEILL        CLOUDY    69  60  71 S9        30.07R
ORD            PTSUNNY   62  59  90 S9        30.12F
THEDFORD       SUNNY     67  57  69 SE12      30.13S
$$

NEZ041-046>049-061>064-073>077-083>087-011400-
SOUTH CENTRAL NEBRASKA

CITY           SKY/WX    TMP DP  RH WIND       PRES   REMARKS
GRAND ISLAND   TSTM      64  61  90 N16G26    30.22
AURORA         TSTM      65  62  88 N17G23    30.17R
HASTINGS       PTSUNNY   67  60  78 N22G31    30.16R
HEBRON         MOSUNNY   69  62  78 CALM      30.09R
HOLDREGE       SUNNY     67  63  86 N17       30.16R
KEARNEY *      MOSUNNY   66  57  72 NE15G28   30.17R
YORK           CLOUDY    66  63  88 NE7       30.12F
$$

NEZ011>018-030>034-042>045-011400-
NORTHEAST NEBRASKA

CITY           SKY/WX    TMP DP  RH WIND       PRES   REMARKS
NORFOLK        LGT RAIN  69  64  84 SW33G40   30.01F
ALBION         RAIN      63  59  87 SW3       30.17S
BLAIR          CLOUDY    67  62  86 NW5       30.06R
COLUMBUS *     CLOUDY    68  59  73 NW10      30.16R
FREMONT        CLOUDY    66  64  90 CALM      30.08R
TEKAMAH        CLOUDY    65  63  93 CALM      30.05R
WAYNE          CLOUDY    66  63  89 SW5       30.06F
$$

NEZ050>053-065>068-078-088>093-011400-
SOUTHEAST NEBRASKA

CITY           SKY/WX    TMP DP  RH WIND       PRES   REMARKS
LINCOLN        CLOUDY    72  61  68 NW8       30.09R
OMAHA EPPLEY   CLOUDY    68  67  96 NW3       30.05R
BEATRICE       CLOUDY    70  64  81 W6        30.07S
FALLS CITY     MOSUNNY   72  69  90 S3        30.05R
NEBRASKA CITY  CLOUDY    69  68  98 S5        30.06R
PLATTSMOUTH    CLOUDY    67  65  96 CALM      30.06R
$$

NEZ044-045-051>053-067-011400-
OMAHA AREA

CITY           SKY/WX    TMP DP  RH WIND       PRES   REMARKS
OMAHA EPPLEY   CLOUDY    68  67  96 NW3       30.05R
BLAIR          CLOUDY    67  62  86 NW5       30.06R
FREMONT        CLOUDY    66  64  90 CALM      30.08R
MILLARD        CLOUDY    69  68  94 NW3       30.06R
OFFUTT AFB     CLOUDY    67  67 100 SW3       30.05R
PLATTSMOUTH    CLOUDY    67  65  96 CALM      30.06R
WAHOO          FAIR      68  64  85 W3        30.08R
$$



USA.gov is the U.S. government's official web portal to all federal, state and local government web resources and services.